Home > Weather > Amarillo > Past weeks

Flag for U.S.A. Weather for the Past 2 Weeks in Amarillo, Texas, U.S.A.

Now
51 °F

Sunny.


Feels Like: 49 °F
Forecast: 39 / 60 °F
Wind: 6 mph from North

Location: Amarillo International Airport

Current Time: Feb 14, 2016 at 1:55:22 PM

Latest Report: Feb 14, 2016 at 12:53 PM


Visibility: 10 mi

Pressure: 29.95 "Hg (26.18 "Hg at 1117m altitude)

Humidity: 33%

Dew point: 23 °F

Location of AmarilloLocation

Historic Weather in Amarillo — Graph

°F

Amarillo Temperature Yesterday

Maximum temperature yesterday: 71 °F (at 3:53 PM)
Minimum temperature yesterday: 29 °F (at 6:53 AM)
Average temperature yesterday: 48 °F

High & Low Weather Summary for the Past Weeks

 TemperatureHumidityPressure
High78 °F (Jan 30, 2:53 PM)93% (Feb 13, 6:53 AM)30.50 "Hg (Feb 13, 6:53 AM)
Low15 °F (Feb 3, 7:53 AM)8% (Feb 10, 2:53 PM)29.44 "Hg (Feb 2, 2:53 AM)
Average41 °F50%30.11 "Hg
* Reported Jan 30 12:53 PM — Feb 14 12:53 PM, Amarillo, Weather by CustomWeather, © 2016

Note: Actual official high and low records may vary slightly from our data, if they occured in-between our weather recording intervals... More about our weather records

Advertising

Amarillo Weather History for the Previous 24 Hours

 ConditionsComfort  
Time TempWeatherWind HumidityBarometerVisibility
12:53 PM
Sun, Feb 14
51 °FSunny.6 mph33%29.95 "Hg10 mi
11:53 AM49 °FSunny.8 mph41%30.00 "Hg10 mi
10:53 AM47 °FSunny.13 mph46%30.03 "Hg10 mi
9:53 AM40 °FSunny.15 mph60%30.03 "Hg10 mi
8:53 AM38 °FSunny.14 mph65%30.01 "Hg10 mi
7:53 AM35 °FSunny.9 mph70%30.01 "Hg10 mi
6:53 AM36 °FClear.13 mph70%29.98 "Hg10 mi
5:53 AM37 °FClear.14 mph67%29.95 "Hg10 mi
4:53 AM37 °FClear.18 mph67%29.92 "Hg10 mi
3:53 AM43 °FClear.22 mph60%29.88 "Hg10 mi
2:53 AM47 °FClear.15 mph34%29.83 "Hg10 mi
1:53 AM44 °FClear.8 mph41%29.82 "Hg10 mi
12:53 AM49 °FClear.12 mph33%29.82 "Hg10 mi
11:53 PM
Sat, Feb 13
50 °FClear.20 mph30%29.83 "Hg10 mi
10:53 PM45 °FClear.12 mph49%29.88 "Hg10 mi
9:53 PM51 °FClear.15 mph44%29.92 "Hg10 mi
8:53 PM56 °FClear.20 mph39%29.91 "Hg10 mi
7:53 PM58 °FClear.22 mph36%29.91 "Hg10 mi
6:53 PM60 °FClear.16 mph32%29.93 "Hg10 mi
5:53 PM67 °FSunny.16 mph23%29.92 "Hg10 mi
4:53 PM70 °FSunny.24 mph23%29.92 "Hg10 mi
3:53 PM71 °FSunny.28 mph25%29.94 "Hg10 mi
2:53 PM69 °FSunny.28 mph26%29.98 "Hg10 mi
1:53 PM62 °FSunny.30 mph37%30.05 "Hg10 mi
Weather by CustomWeather, © 2016

See weather overviewHow to use our weather pages